Hourly Weather Quebec

Today, 26 January, Tuesday

Time Temperature Precipitation Wind Pressure Humidity
00:00 -14°C° 0 mm 2 mps 696 mmHg 93%
01:00 -14°C° 0 mm 2 mps 696 mmHg 92%
02:00 -14°C° 0 mm 2 mps 696 mmHg 92%
03:00 -15°C° 0 mm 2 mps 696 mmHg 92%
04:00 -16°C° 0 mm 2 mps 696 mmHg 92%
05:00 -16°C° 0 mm 2 mps 696 mmHg 92%
06:00 -16°C° 0 mm 2 mps 697 mmHg 92%
07:00 -16°C° 0 mm 2 mps 697 mmHg 93%
08:00 -15°C° 0 mm 2 mps 697 mmHg 92%
09:00 -15°C° 0 mm 2 mps 697 mmHg 91%
10:00 -15°C° 0 mm 3 mps 698 mmHg 91%
11:00 -13°C° 0 mm 2 mps 697 mmHg 91%
12:00 -12°C° 0 mm 2 mps 697 mmHg 91%
13:00 -9°C° 0 mm 2 mps 697 mmHg 91%
14:00 -10°C° 0 mm 2 mps 697 mmHg 92%
15:00 -10°C° 0 mm 2 mps 697 mmHg 93%
16:00 -12°C° 0 mm 2 mps 697 mmHg 95%
17:00 -13°C° 0 mm 2 mps 697 mmHg 95%
18:00 -14°C° 0 mm 2 mps 697 mmHg 95%
19:00 -15°C° 0 mm 2 mps 697 mmHg 95%
20:00 -15°C° 0 mm 2 mps 697 mmHg 96%
21:00 -16°C° 0 mm 2 mps 697 mmHg 96%
22:00 -16°C° 0 mm 2 mps 697 mmHg 96%
23:00 -16°C° 0 mm 2 mps 697 mmHg 96%

Tomorrow, 27 January, Wednesday

Time Temperature Precipitation Wind Pressure Humidity
00:00 -14°C° 0 mm 1 mps 697 mmHg 96%
01:00 -14°C° 0 mm 1 mps 697 mmHg 96%
02:00 -15°C° 0 mm 1 mps 697 mmHg 96%
03:00 -15°C° 0 mm 1 mps 696 mmHg 97%
04:00 -16°C° 0 mm 1 mps 696 mmHg 97%
05:00 -16°C° 0 mm 1 mps 696 mmHg 97%
06:00 -16°C° 0 mm 1 mps 696 mmHg 97%
07:00 -17°C° 0 mm 1 mps 697 mmHg 97%
08:00 -15°C° 0 mm 0 mps 697 mmHg 95%
09:00 -13°C° 0 mm 0 mps 697 mmHg 93%
10:00 -12°C° 0 mm 0 mps 698 mmHg 92%
11:00 -11°C° 0 mm 0 mps 697 mmHg 90%
12:00 -10°C° 0 mm 0 mps 697 mmHg 89%
13:00 -8°C° 0 mm 0 mps 697 mmHg 88%
14:00 -9°C° 0 mm 0 mps 697 mmHg 90%
15:00 -10°C° 0 mm 1 mps 696 mmHg 93%
16:00 -11°C° 0 mm 1 mps 696 mmHg 95%
17:00 -13°C° 0 mm 1 mps 696 mmHg 96%
18:00 -14°C° 0 mm 1 mps 696 mmHg 97%
19:00 -15°C° 0 mm 1 mps 696 mmHg 98%
20:00 -15°C° 0 mm 1 mps 696 mmHg 98%
21:00 -16°C° 0 mm 1 mps 695 mmHg 98%
22:00 -16°C° 0 mm 1 mps 695 mmHg 98%
23:00 -17°C° 0 mm 1 mps 695 mmHg 98%

Day after tomorrow, 28 January, Thursday

Time Temperature Precipitation Wind Pressure Humidity
00:00 -17°C° 0 mm 1 mps 695 mmHg 98%
01:00 -17°C° 0 mm 1 mps 694 mmHg 98%
02:00 -18°C° 0 mm 1 mps 694 mmHg 98%
03:00 -18°C° 0 mm 1 mps 694 mmHg 97%
04:00 -19°C° 0 mm 1 mps 694 mmHg 97%
05:00 -19°C° 0 mm 1 mps 694 mmHg 97%
06:00 -20°C° 0 mm 1 mps 694 mmHg 98%
07:00 -23°C° 0 mm 2 mps 694 mmHg 98%
08:00 -21°C° 0 mm 2 mps 694 mmHg 96%
09:00 -20°C° 0 mm 2 mps 694 mmHg 95%
10:00 -18°C° 0 mm 2 mps 694 mmHg 93%
11:00 -18°C° 0 mm 2 mps 694 mmHg 92%
12:00 -17°C° 0 mm 2 mps 694 mmHg 91%
13:00 -17°C° 0 mm 3 mps 694 mmHg 90%
14:00 -18°C° 0 mm 3 mps 694 mmHg 92%
15:00 -19°C° 0 mm 3 mps 693 mmHg 94%
16:00 -21°C° 0 mm 3 mps 693 mmHg 96%
17:00 -22°C° 0 mm 3 mps 693 mmHg 97%
18:00 -24°C° 0 mm 4 mps 694 mmHg 97%
19:00 -25°C° 0 mm 4 mps 694 mmHg 98%
20:00 -25°C° 0 mm 4 mps 694 mmHg 98%
21:00 -25°C° 0 mm 3 mps 693 mmHg 98%
22:00 -26°C° 0 mm 3 mps 693 mmHg 99%
23:00 -27°C° 0 mm 3 mps 693 mmHg 99%

29 January, Friday

Time Temperature Precipitation Wind Pressure Humidity
00:00 -27°C° 0 mm 2 mps 693 mmHg 99%
01:00 -27°C° 0 mm 2 mps 693 mmHg 99%
02:00 -28°C° 0 mm 2 mps 693 mmHg 99%
03:00 -29°C° 0 mm 2 mps 693 mmHg 99%
04:00 -29°C° 0 mm 2 mps 693 mmHg 99%
05:00 -29°C° 0 mm 2 mps 693 mmHg 98%
06:00 -30°C° 0 mm 2 mps 694 mmHg 98%
07:00 -30°C° 0 mm 2 mps 694 mmHg 98%
08:00 -28°C° 0 mm 2 mps 695 mmHg 96%
09:00 -27°C° 0 mm 2 mps 695 mmHg 93%
10:00 -26°C° 0 mm 2 mps 696 mmHg 91%
11:00 -24°C° 0 mm 2 mps 696 mmHg 89%
12:00 -23°C° 0 mm 2 mps 696 mmHg 87%
13:00 -21°C° 0 mm 2 mps 696 mmHg 85%
14:00 -24°C° 0 mm 3 mps 696 mmHg 88%
15:00 -25°C° 0 mm 3 mps 696 mmHg 90%
16:00 -25°C° 0 mm 3 mps 696 mmHg 93%
17:00 -26°C° 0 mm 3 mps 696 mmHg 94%
18:00 -27°C° 0 mm 3 mps 697 mmHg 96%
19:00 -29°C° 0 mm 3 mps 697 mmHg 97%
20:00 -27°C° 0 mm 2 mps 697 mmHg 97%
21:00 -27°C° 0 mm 2 mps 697 mmHg 98%
22:00 -27°C° 0 mm 2 mps 697 mmHg 98%
23:00 -27°C° 0 mm 2 mps 697 mmHg 98%

30 January, Saturday

Time Temperature Precipitation Wind Pressure Humidity
00:00 -27°C° 0 mm 2 mps 697 mmHg 98%
01:00 -27°C° 0 mm 2 mps 697 mmHg 97%
02:00 -27°C° 0 mm 2 mps 697 mmHg 97%
03:00 -27°C° 0 mm 2 mps 697 mmHg 97%
04:00 -27°C° 0 mm 2 mps 697 mmHg 97%
05:00 -27°C° 0 mm 2 mps 697 mmHg 96%
06:00 -27°C° 0 mm 2 mps 698 mmHg 96%
07:00 -27°C° 0 mm 2 mps 698 mmHg 96%
08:00 -26°C° 0 mm 2 mps 698 mmHg 95%
09:00 -27°C° 0 mm 3 mps 698 mmHg 94%
10:00 -26°C° 0 mm 3 mps 698 mmHg 92%
11:00 -24°C° 0 mm 3 mps 699 mmHg 91%
12:00 -23°C° 0 mm 3 mps 699 mmHg 89%
13:00 -22°C° 0 mm 3 mps 699 mmHg 87%
14:00 -22°C° 0 mm 3 mps 699 mmHg 89%
15:00 -23°C° 0 mm 3 mps 699 mmHg 91%
16:00 -24°C° 0 mm 3 mps 699 mmHg 93%
17:00 -24°C° 0 mm 2 mps 699 mmHg 94%
18:00 -24°C° 0 mm 2 mps 700 mmHg 95%
19:00 -25°C° 0 mm 2 mps 700 mmHg 97%
20:00 -26°C° 0 mm 2 mps 700 mmHg 96%
21:00 -26°C° 0 mm 2 mps 700 mmHg 95%
22:00 -26°C° 0 mm 2 mps 700 mmHg 95%
23:00 -26°C° 0 mm 2 mps 700 mmHg 93%

31 January, Sunday

Time Temperature Precipitation Wind Pressure Humidity
00:00 -26°C° 0 mm 2 mps 700 mmHg 91%
01:00 -26°C° 0 mm 2 mps 700 mmHg 89%
02:00 -26°C° 0 mm 2 mps 700 mmHg 86%
03:00 -23°C° 0 mm 1 mps 700 mmHg 84%
04:00 -23°C° 0 mm 1 mps 700 mmHg 82%
05:00 -22°C° 0 mm 1 mps 701 mmHg 79%
06:00 -22°C° 0 mm 1 mps 701 mmHg 77%
07:00 -22°C° 0 mm 1 mps 701 mmHg 74%
08:00 -20°C° 0 mm 1 mps 701 mmHg 73%
09:00 -17°C° 0 mm 1 mps 702 mmHg 72%
10:00 -15°C° 0 mm 1 mps 702 mmHg 71%
11:00 -14°C° 0 mm 1 mps 702 mmHg 71%
12:00 -12°C° 0 mm 1 mps 702 mmHg 70%
13:00 -11°C° 0 mm 1 mps 702 mmHg 70%
14:00 -12°C° 0 mm 1 mps 701 mmHg 75%
15:00 -13°C° 0 mm 1 mps 701 mmHg 79%
16:00 -14°C° 0 mm 1 mps 701 mmHg 84%
17:00 -15°C° 0 mm 1 mps 701 mmHg 84%
18:00 -16°C° 0 mm 1 mps 701 mmHg 84%
19:00 -17°C° 0 mm 1 mps 701 mmHg 84%
20:00 -18°C° 0 mm 1 mps 700 mmHg 83%
21:00 -18°C° 0 mm 1 mps 700 mmHg 81%
22:00 -19°C° 0 mm 1 mps 700 mmHg 80%
23:00 -19°C° 0 mm 1 mps 700 mmHg 79%
Show more